星链-1903 (STARLINK-1903 )

导读 | 豆包AI

STARLINK-1903是美国SpaceX公司星链(Starlink)计划中的一颗卫星,于北京时间2020年10月24日08时发射升空,属于星链低轨卫星互联网星座组网卫星之一。星链旨在为全球提供高速互联网接入服务,该卫星入轨后参与了星座的服务能力建设,推进了星链的全球覆盖布局。

基本信息
目录编号:
46764
目录名称:
STARLINK-1903
国际标识:
2020-074AB
轨道中心:
EARTH
卫星名称:
星链-1903
卫星全名:
星链-1903 (STARLINK-1903 )
卫星状态:
已陨落 最后检测时间 2025-11-15
发射日期:
2020-10-24 UTC
国别 :
美国 (US)
星等 :
--
轨道信息
数据来源 国际轨道数据
星历时间: 2025-11-14T16:51:07+0800
轨道信息已过期140天
半长轴: 6560.442km
偏心率: 0.0005756
轨道倾角: 52.994°
近地点辐角 324.900°
升交点赤经 22.046°
平近点角 35.166°
近地点: 178.53km
远地点: 186.084km
周期: 88.137分钟
每日圈数: 16.338161
详细信息
固有亮度:
5
最大亮度:
2.5
卫星平台:
Starlink V1.0
覆盖范围:
全球
运营商:
太空探索技术公司
运营商所在国:
美国
制造商(研发单位):
太空探索技术公司
制造商所在国:
美国
使用方式:
暂无
卫星简介
星链(Starlink)计划是由太空探索技术公司(SpaceX)提出的一个巨型低轨卫星互联网星座项目,计划在2019年至2024年间在太空搭建由约1.2万颗卫星组成的“星链”网络,其中1584颗将部署在地球上空550千米处的近地轨道,并从2020年开始工作。该卫星仍在工作。